Find Starlink 5969

NORAD ID: 55993 Int'l Des: 2023-042 Owner: SPXS Country: US Constellation: starlink operational
LEOCIRCULAR

現在のビュー

3D地球を読み込み中...

About Starlink 5969

Starlink 5969 (NORAD 55993) is a starlink constellation satellite (v1.5) launched Mar 24, 2023 by SPXS of US. It operates in LEO, CIRCULAR orbit with a mass of 305.00 kg.

次回通過

Passes for default location (London). Set your location on the main map for personalized predictions.

高度履歴

Loading altitude history...

軌道要素

1 55993U 23042H 26263.82292960 -.00001479 00000-0 -44234-4 0 9993
2 55993 43.0058 37.5104 0001569 273.2612 86.8060 15.27566879192711
Epoch: Sep 20, 2026 • Age: 10 hours

現在のステータス

高度 493.4 km
遠地点 / 近地点 N/A
速度 7.62 km/s
衛星直下点 -37.95°S, 177.72°E
打ち上げ日 Mar 24, 2023
運用期間 3.4 years
タイプ internet

技術仕様

分類 Payload
質量 305.00 kg
乾燥質量 290.00 kg
長さ 0.20 m
スパン 9.00 m
形状 ? Box + pan
製造者 SPXS
バスタイプ Starlink
フェーズステータス In Orbit
所有者/国 SPXS/US

Most Searched